[[{"header":{"parameterUnit":"m.s-1","parameterCategory":1,"la1":30.2991,"la2":30.254,"lo1":-89.0895,"lo2":-89.0444,"dy":0.0017,"dx":0.0017,"nx":28,"ny":28,"refTime":"2023-04-25T21:00:00:Z","depth":0,"parameterNumber":2,"parameterNumberName":"U-component_of_WINDS"},"data":[0,0,0,0,0,0,0,0,0,0,0,0,0,0,0,0,0,0,0,0,0,0,0,0,0,0,0,0,0,0,0,0,0,0,0,0,0,0,0,0,0,0,0,0,0,0,0,0,0,0,0,0,0,0,0,0,0,0,-3.4504,-3.4505,0,-3.4562,-3.4563,-3.4564,-3.4539,-3.4537,-3.4536,-3.4535,-3.4596,-3.4599,-3.4602,0,0,0,0,0,0,0,0,0,0,0,0,0,-3.4374,-3.4377,-3.4504,-3.4505,-3.4506,-3.4562,-3.4563,-3.4564,-3.4539,-3.4537,-3.4535,-3.4534,-3.4595,-3.4599,-3.4602,0,0,0,0,0,0,0,0,0,0,0,0,0,-3.4431,-3.4378,-3.4504,-3.45,-3.45,-3.4562,-3.4563,-3.4564,-3.4539,-3.4537,-3.4535,-3.4533,-3.4594,-3.4598,-3.4603,-3.4673,0,0,-3.4616,-3.4618,0,0,0,0,0,0,0,0,-3.4428,-3.4436,-3.45,-3.45,-3.4501,-3.4541,-3.454,-3.4601,-3.454,-3.4525,-3.4534,-3.4532,-3.458,-3.4585,-3.4601,-3.4676,-3.4678,-3.4617,-3.4619,-3.4621,-3.4623,0,0,0,0,0,0,0,-3.4424,-3.4434,-3.4527,-3.4501,-3.4501,-3.4496,-3.4502,-3.4551,-3.4563,-3.4526,-3.4524,-3.4531,-3.458,-3.4597,-3.4602,-3.4679,-3.4617,-3.4621,-3.4623,-3.4625,-3.4816,-3.4819,0,0,0,0,0,0,-3.442,-3.443,-3.4525,-3.4529,-3.4458,-3.45,-3.4507,-3.453,-3.4563,-3.4566,-3.4533,-3.453,-3.459,-3.4597,-3.4604,-3.469,-3.4621,-3.4625,-3.4628,-3.4814,-3.4817,-3.482,0,0,0,0,0,0,-3.4417,-3.4429,-3.4523,-3.4479,-3.4491,-3.4505,-3.4531,-3.4533,-3.455,-3.4568,-3.457,-3.4548,-3.4589,-3.4598,-3.4656,-3.4691,-3.4627,-3.4632,-3.4811,-3.4815,-3.4818,-3.486,0,0,0,0,0,0,-3.4414,-3.4428,-3.4454,-3.448,-3.4493,-3.4573,-3.4534,-3.4535,-3.4557,-3.4553,-3.4583,-3.4586,-3.4588,-3.465,-3.4661,-3.4696,-3.4635,-3.4808,-3.4813,-3.4817,-3.4856,-3.4865,-3.4872,0,0,0,0,0,-3.4409,-3.4463,-3.4455,-3.4467,-3.4526,-3.4575,-3.4583,-3.4583,-3.456,-3.4587,-3.4599,-3.4585,-3.4686,-3.4656,-3.4668,-3.4705,-3.4806,-3.4812,-3.4817,-3.4852,-3.4863,-3.4872,0,0,0,0,0,0,-3.4441,-3.4467,-3.4458,-3.4522,-3.4547,-3.4571,-3.4605,-3.4595,-3.4627,-3.4623,-3.4623,-3.463,-3.469,-3.4703,-3.467,-3.4776,-3.4742,-3.475,-3.4765,-3.4775,-3.4784,-3.4779,-3.4639,0,0,0,0,0,-3.4455,-3.4493,-3.4513,-3.4568,-3.4581,-3.4591,-3.4612,-3.4611,-3.4636,-3.4647,-3.4663,-3.4689,-3.4727,-3.4752,-3.4788,-3.4857,-3.4864,-3.4889,-3.4898,-3.4904,-3.4912,-3.4951,-3.4963,-3.4837,-3.4837,-3.4837,0,0,-3.4486,-3.4504,-3.4528,-3.4575,-3.4594,-3.4633,-3.46,-3.4642,-3.4672,-3.4653,-3.471,-3.4723,-3.4752,-3.4817,-3.4846,-3.483,-3.4948,-3.4911,-3.4917,-3.492,-3.4958,-3.497,-3.4981,-3.4841,-3.484,-3.484,0,0,-3.4561,-3.4579,-3.4627,-3.4647,-3.4676,-3.4682,-3.4694,-3.472,-3.4728,-3.4784,-3.4771,-3.4807,-3.4872,-3.4894,-3.4913,-3.4999,-3.4988,-3.5011,-3.5055,-3.5093,-3.5103,-3.5112,-3.5144,-3.5155,-3.5018,-3.5018,-3.5018,0,-3.4596,-3.4654,-3.4653,-3.4697,-3.4719,-3.4704,-3.4753,-3.4773,-3.4812,-3.4828,-3.4809,-3.4891,-3.4909,-3.498,-3.5001,-3.5017,-3.5031,-3.5007,-3.5102,-3.5111,-3.5119,-3.5149,-3.5161,-3.502,-3.502,-3.502,-3.502,0,-3.4695,-3.4736,-3.4772,-3.481,-3.4836,-3.4882,-3.489,-3.4916,-3.4913,-3.4921,-3.498,-3.5002,-3.5042,-3.5059,-3.5056,-3.513,-3.5119,-3.5101,-3.5067,-3.5133,-3.5162,-3.5174,-3.5024,-3.5023,-3.5023,-3.5022,0,0,-3.4792,-3.483,-3.4843,-3.4861,-3.4893,-3.4925,-3.4972,-3.5011,-3.5034,-3.5062,-3.5102,-3.5158,-3.5142,-3.5164,-3.5164,-3.5198,-3.5266,-3.5176,-3.5177,-3.5193,-3.535,-3.5364,-3.5377,-3.5259,-3.5261,-3.5263,-3.5348,0,-3.4871,-3.4952,-3.4953,-3.5029,-3.5067,-3.5054,-3.5095,-3.5119,-3.5129,-3.5164,-3.5175,-3.5215,-3.5191,-3.5204,-3.5237,-3.5251,-3.5298,-3.5244,-3.5297,-3.5299,-3.5291,-3.5392,-3.5407,-3.5486,-3.5359,-3.5361,-3.5362,0,-3.4974,-3.5005,-3.5084,-3.5111,-3.5128,-3.5164,-3.5201,-3.5234,-3.5263,-3.5268,-3.5293,-3.5288,-3.5337,-3.5302,-3.5371,-3.5334,-3.5356,-3.5366,-3.537,-3.5375,-3.5335,-3.5401,-3.5512,-3.5524,-3.538,-3.5378,-3.5377,0,-3.5038,-3.51,-3.5156,-3.5171,-3.5204,-3.5231,-3.5246,-3.5272,-3.5296,-3.5328,-3.5344,-3.5382,-3.5403,-3.5433,-3.5439,-3.5413,-3.5509,-3.5473,-3.5515,-3.5516,-3.5537,-3.5535,-3.5653,-3.5549,-3.5549,-3.5549,-3.5549,0,-3.5127,-3.5176,-3.5185,-3.522,-3.5275,-3.5276,-3.5331,-3.5344,-3.5368,-3.5405,-3.5396,-3.5432,-3.5437,-3.5474,-3.5479,-3.5536,-3.5546,-3.5552,-3.5553,-3.5554,-3.5553,-3.5568,-3.5563,-3.5552,-3.5552,-3.5551,-3.555,0,-3.5208,-3.5216,-3.5276,-3.5302,-3.531,-3.535,-3.5373,-3.5407,-3.5416,-3.5464,-3.5475,-3.549,-3.5534,-3.5542,-3.5594,-3.5598,-3.5666,-3.5661,-3.5656,-3.5656,-3.5698,-3.5694,-3.583,-3.5848,-3.5732,-3.5733,-3.5734,0,-3.5264,-3.5302,-3.5332,-3.5356,-3.5373,-3.5412,-3.5437,-3.544,-3.5466,-3.5502,-3.5531,-3.5574,-3.5608,-3.5679,-3.5695,-3.5735,-3.5731,-3.5776,-3.5737,-3.5737,-3.5733,-3.5731,-3.5736,-3.5784,-3.5785,-3.5786,-3.5787,0,-3.5364,-3.5366,-3.5401,-3.5439,-3.5468,-3.5498,-3.5526,-3.5547,-3.5554,-3.5584,-3.5628,-3.5655,-3.5708,-3.5751,-3.5791,-3.5808,-3.58,-3.5799,-3.5811,-3.5812,-3.5808,-3.5812,-3.5677,-3.5796,-3.5795,-3.5795,-3.5794,-3.5794,-3.5435,-3.5468,-3.5495,-3.5535,-3.5557,-3.5584,-3.5617,-3.563,-3.5667,-3.571,-3.571,-3.5759,-3.5788,-3.5841,-3.586,-3.5899,-3.5885,-3.5902,-3.5907,-3.5911,-3.5916,-3.5802,-3.5906,-3.5906,-3.5906,-3.5906,-3.5906,0,-3.5535,-3.5552,-3.5589,-3.5628,-3.566,-3.5649,-3.568,-3.5708,-3.575,-3.5777,-3.5811,-3.5863,-3.5905,-3.5925,-3.5967,-3.5995,-3.5992,-3.6006,-3.6004,-3.6008,-3.5925,-3.5911,-3.6007,-3.6007,-3.6007,-3.6007,-3.6007,-3.6007,-3.5591,-3.5647,-3.5653,-3.572,-3.5737,-3.5784,-3.5803,-3.5828,-3.585,-3.5908,-3.5942,-3.5955,-3.598,-3.6023,-3.6062,-3.6067,-3.6083,-3.6099,-3.6102,-3.6024,-3.6014,-3.6004,-3.5991,-3.6102,-3.6102,-3.6182,-3.6183,-3.6183]},{"header":{"parameterUnit":"m.s-1","parameterCategory":1,"la1":30.2991,"la2":30.254,"lo1":-89.0895,"lo2":-89.0444,"dy":0.0017,"dx":0.0017,"nx":28,"ny":28,"refTime":"2023-04-25T21:00:00:Z","depth":0,"parameterNumber":3,"parameterNumberName":"V-component_of_WINDS"},"data":[0,0,0,0,0,0,0,0,0,0,0,0,0,0,0,0,0,0,0,0,0,0,0,0,0,0,0,0,0,0,0,0,0,0,0,0,0,0,0,0,0,0,0,0,0,0,0,0,0,0,0,0,0,0,0,0,0,0,2.0789,2.079,0,2.0887,2.0888,2.0889,2.0968,2.0969,2.097,2.0971,2.1071,2.1072,2.1074,0,0,0,0,0,0,0,0,0,0,0,0,0,2.0669,2.0671,2.0788,2.079,2.0791,2.0887,2.0888,2.0889,2.0968,2.0969,2.097,2.0971,2.107,2.1072,2.1075,0,0,0,0,0,0,0,0,0,0,0,0,0,2.074,2.0672,2.0788,2.0842,2.0848,2.0886,2.0888,2.089,2.0968,2.0969,2.0971,2.0972,2.1069,2.1072,2.1075,2.1068,0,0,2.1084,2.1085,0,0,0,0,0,0,0,0,2.0736,2.0744,2.0833,2.0838,2.0845,2.0917,2.0883,2.095,2.0968,2.0922,2.0971,2.0972,2.1018,2.1025,2.1041,2.1073,2.1077,2.1084,2.1086,2.1087,2.1088,0,0,0,0,0,0,0,2.0731,2.074,2.0827,2.0834,2.0841,2.0861,2.0873,2.0896,2.0962,2.0926,2.0932,2.0943,2.1022,2.1038,2.1044,2.1079,2.1084,2.1086,2.1088,2.1089,2.1113,2.1111,0,0,0,0,0,0,2.0717,2.0736,2.0824,2.083,2.0792,2.0862,2.0875,2.0892,2.0962,2.0974,2.0942,2.0946,2.1033,2.1041,2.1048,2.1047,2.1087,2.1089,2.1091,2.1114,2.1112,2.1111,0,0,0,0,0,0,2.0715,2.0725,2.082,2.0785,2.0798,2.0863,2.0882,2.0894,2.091,2.0974,2.0986,2.0946,2.1034,2.1044,2.1063,2.1051,2.1091,2.1093,2.1115,2.1113,2.1112,2.1043,0,0,0,0,0,0,2.0711,2.0723,2.0721,2.0784,2.08,2.0833,2.0881,2.0895,2.0915,2.0922,2.0981,2.0993,2.1036,2.1059,2.1066,2.1056,2.1096,2.1116,2.1114,2.1112,2.1047,2.1039,2.1033,0,0,0,0,0,2.0706,2.0697,2.072,2.0731,2.0799,2.0833,2.0842,2.0892,2.0914,2.0913,2.0954,2.0991,2.1051,2.106,2.1069,2.106,2.1117,2.1115,2.1112,2.105,2.1041,2.1033,0,0,0,0,0,0,2.063,2.0706,2.0733,2.0744,2.0781,2.0846,2.0846,2.088,2.0912,2.0917,2.0978,2.0991,2.1004,2.1034,2.1042,2.1058,2.1089,2.1088,2.1039,2.103,2.1024,2.1017,2.1098,0,0,0,0,0,2.0614,2.0636,2.0701,2.0704,2.0722,2.078,2.0797,2.0833,2.0874,2.089,2.0933,2.0971,2.0999,2.1016,2.1045,2.1051,2.1066,2.1049,2.1042,2.1036,2.1036,2.1043,2.1037,2.1103,2.1103,2.1103,0,0,2.0582,2.0627,2.0636,2.069,2.0723,2.0745,2.0793,2.0813,2.083,2.0893,2.0915,2.0947,2.0994,2.1007,2.1015,2.1032,2.1021,2.1033,2.1028,2.1031,2.104,2.1034,2.1028,2.1101,2.1102,2.1102,0,0,2.0535,2.057,2.0578,2.0611,2.0661,2.07,2.0702,2.0762,2.0786,2.0809,2.0858,2.0878,2.0925,2.0957,2.0979,2.0947,2.0983,2.0954,2.0919,2.0926,2.0921,2.0916,2.0907,2.0902,2.0953,2.0953,2.0953,0,2.0489,2.0523,2.0577,2.0595,2.0618,2.0677,2.0686,2.0715,2.0772,2.0786,2.0805,2.0866,2.0902,2.0925,2.0917,2.0932,2.0937,2.0948,2.0917,2.0913,2.091,2.0902,2.0898,2.0949,2.0949,2.095,2.095,0,2.0465,2.0488,2.0488,2.0543,2.0566,2.0579,2.0636,2.0652,2.0686,2.0724,2.0747,2.0792,2.0833,2.084,2.0873,2.0868,2.0878,2.0905,2.0938,2.0899,2.0893,2.0889,2.0944,2.0945,2.0946,2.0947,0,0,2.0373,2.0458,2.0458,2.0484,2.0545,2.0564,2.058,2.062,2.0634,2.0671,2.0688,2.0727,2.0754,2.0779,2.0816,2.0821,2.0796,2.0849,2.0851,2.0839,2.0796,2.0776,2.0771,2.0819,2.0819,2.0818,2.0793,0,2.0337,2.037,2.042,2.0437,2.046,2.0517,2.0532,2.057,2.0606,2.0631,2.0671,2.0698,2.073,2.0747,2.0755,2.0797,2.0788,2.0799,2.0836,2.0837,2.0824,2.0767,2.0746,2.0719,2.079,2.079,2.0789,0,2.03,2.0335,2.0355,2.0416,2.0427,2.0439,2.0481,2.0504,2.055,2.0576,2.0605,2.0645,2.0667,2.0695,2.0726,2.0733,2.0751,2.0774,2.0774,2.0781,2.0812,2.0774,2.0712,2.0708,2.0785,2.0786,2.0786,0,2.0233,2.0285,2.0305,2.0325,2.0396,2.0404,2.0433,2.048,2.0502,2.0539,2.0554,2.0592,2.0613,2.0642,2.0692,2.0708,2.0719,2.0751,2.0742,2.0741,2.0743,2.0742,2.0684,2.0751,2.0751,2.0751,2.0751,0,2.0189,2.0199,2.0276,2.0288,2.0302,2.0359,2.0371,2.0406,2.0448,2.0468,2.0519,2.0537,2.0601,2.0627,2.0666,2.0687,2.0696,2.0718,2.0729,2.0715,2.0712,2.0729,2.0732,2.075,2.075,2.075,2.0751,0,2.0117,2.0169,2.0194,2.0259,2.0276,2.0284,2.034,2.0354,2.0393,2.0418,2.0427,2.0489,2.0522,2.0575,2.0623,2.065,2.0665,2.0681,2.0649,2.0656,2.0645,2.0646,2.0597,2.0594,2.066,2.066,2.0659,0,2.0087,2.0096,2.0163,2.0181,2.0209,2.0236,2.0259,2.0316,2.0338,2.0392,2.04,2.0437,2.047,2.0521,2.057,2.0608,2.0627,2.0607,2.0633,2.0619,2.0629,2.0629,2.0631,2.0601,2.06,2.0599,2.0599,0,2.0028,2.0053,2.0084,2.0125,2.0151,2.0186,2.0223,2.0234,2.0299,2.0321,2.0356,2.0382,2.0432,2.047,2.0515,2.0546,2.0584,2.059,2.0591,2.0577,2.0559,2.0571,2.0635,2.0591,2.0592,2.0593,2.0593,2.0593,1.9977,1.9989,2.0039,2.0072,2.0106,2.014,2.0158,2.0199,2.023,2.0276,2.0307,2.0341,2.0388,2.0453,2.0482,2.051,2.0526,2.0526,2.0526,2.0526,2.0521,2.0553,2.0518,2.0518,2.0518,2.0518,2.0519,0,1.9923,1.9958,1.9988,2.0039,2.0066,2.0099,2.0142,2.0162,2.0191,2.0232,2.0264,2.0306,2.0342,2.0395,2.0435,2.0448,2.0466,2.0457,2.0457,2.0464,2.0503,2.05,2.0441,2.0441,2.0441,2.0441,2.0441,2.0441,1.9898,1.9921,1.9952,1.9993,2.0028,2.0062,2.0084,2.0116,2.0149,2.0193,2.0224,2.0258,2.0304,2.0349,2.0385,2.0399,2.0413,2.0398,2.0418,2.0454,2.0461,2.0468,2.0465,2.04,2.04,2.0377,2.0377,2.0377]}]]